Location: Saluda
(35.2377°N, 82.3468°W)
Time: 22:26:46
(UTC+00:00)

deb Delta 126 - Visible Passes

Search period start: 22 March 2023 00:00
Search period end: 01 April 2023 00:00
Orbit: 1468 x 1910 km, 102.3° (Epoch: 21 March)

Date Brightness Start Highest point End Pass type
(mag) Time Alt. Az. Time Alt. Az. Time Alt. Az.
22 Mar ? 02:45:32 47° NE 02:45:32 47° NE 02:53:22 10° N visible
22 Mar ? 04:45:45 31° WNW 04:45:45 31° WNW 04:51:01 10° NNW visible
23 Mar ? 02:48:14 49° NE 02:48:14 49° NE 02:56:08 10° N visible
23 Mar ? 04:48:28 30° WNW 04:48:28 30° WNW 04:53:41 10° NW visible
24 Mar ? 00:53:14 10° NE 00:54:14 10° NE 00:55:14 10° NE visible
24 Mar ? 02:50:57 50° NE 02:50:57 50° NE 02:58:53 10° N visible
24 Mar ? 04:51:10 30° WNW 04:51:10 30° WNW 04:56:21 10° NW visible
25 Mar ? 00:55:01 10° ENE 00:56:53 11° NE 00:58:45 10° NE visible
25 Mar ? 02:53:39 52° NE 02:53:39 52° NE 03:01:39 10° N visible
25 Mar ? 04:53:53 29° WNW 04:53:53 29° WNW 04:58:59 10° NW visible
26 Mar ? 00:57:06 10° ENE 00:59:33 11° NE 01:01:58 10° NNE visible
26 Mar ? 02:56:21 54° NE 02:56:21 54° NE 03:04:24 10° N visible
26 Mar ? 04:56:35 28° WNW 04:56:35 28° WNW 05:01:38 10° NW visible
27 Mar ? 00:59:18 10° ENE 01:02:13 12° NE 01:05:04 10° NNE visible
27 Mar ? 02:59:04 56° NE 02:59:04 56° NE 03:07:09 10° N visible
27 Mar ? 04:59:17 27° WNW 04:59:17 27° WNW 05:04:16 10° NW visible
28 Mar ? 01:01:34 10° ENE 01:04:53 12° NE 01:08:06 10° NNE visible
28 Mar ? 03:01:46 58° NE 03:01:46 58° NE 03:09:55 10° N visible
28 Mar ? 05:02:00 26° WNW 05:02:00 26° WNW 05:06:55 10° NW visible
29 Mar ? 01:04:15 11° ENE 01:07:32 13° NE 01:11:06 10° NNE visible
29 Mar ? 03:04:29 60° NE 03:04:29 60° NE 03:12:40 10° N visible
29 Mar ? 05:04:43 25° WNW 05:04:43 25° WNW 05:09:32 10° NW visible
30 Mar ? 01:06:58 11° ENE 01:10:13 13° NE 01:14:04 10° NNE visible
30 Mar ? 03:07:12 62° NE 03:07:12 62° NE 03:15:24 10° N visible
30 Mar ? 05:07:25 24° WNW 05:07:25 24° WNW 05:12:08 10° NW visible
31 Mar ? 01:09:41 12° ENE 01:12:52 14° NE 01:17:01 10° NNE visible
31 Mar ? 03:09:54 64° NE 03:09:54 64° NE 03:18:09 10° N visible
31 Mar ? 05:10:08 23° WNW 05:10:08 23° WNW 05:14:45 10° NW visible
